Wind_Speed
16 16 16 16 16 16 17 16 15 13 12 13 12 12 13 14 3 5 3 6 6 10 10 14 12 14 5 1 2 3 4 4 5 7 6 8 9 8 9 6 7 3 4 10 25
17 18 18 18 18 18 19 17 15 14 13 13 12 11 10 12 4 5 3 6 8 10 10 11 7 14 3 1 2 4 3 2 2 3 5 7 6 6 4 7 7 8 16 21 25
19 20 21 22 22 23 22 17 15 15 15 14 12 10 7 7 2 1 4 7 9 9 7 10 13 4 4 1 3 1 2 3 3 4 4 5 6 3 6 6 15 17 11 13 15
21 22 23 24 24 25 22 19 19 19 17 14 11 6 4 2 3 1 4 8 10 7 8 10 7 5 5 4 5 1 2 3 4 5 4 6 4 5 14 10 14 17 19 16 13
21 23 24 26 27 25 22 23 23 19 13 7 4 1 2 2 2 4 7 9 7 9 8 4 5 4 3 5 8 3 2 5 7 3 5 12 12 5 20 21 20 22 23 20 17
22 24 26 28 29 23 25 25 19 12 9 5 3 5 2 3 3 6 8 7 5 6 8 5 3 3 3 4 1 4 3 5 1 4 4 10 9 7 16 17 20 20 18 17 17
23 26 28 30 28 23 27 22 11 10 8 5 6 5 3 2 1 4 7 7 8 5 3 4 4 3 5 5 2 3 5 7 1 3 2 8 10 8 10 16 18 19 19 18 18
24 26 29 31 23 25 25 15 10 9 9 7 6 3 2 3 1 6 4 4 3 5 2 4 3 1 1 3 5 5 4 3 5 3 6 6 0 8 14 17 20 22 20 20 17
24 26 29 31 22 24 23 10 7 9 7 6 4 2 2 1 3 4 5 4 3 3 2 3 2 2 6 4 5 6 2 3 3 3 4 6 1 10 13 16 22 24 21 17 13
25 27 29 31 22 25 23 6 3 5 5 3 3 3 4 3 6 4 3 5 2 2 3 3 4 3 5 6 0 4 4 2 4 3 8 11 4 9 13 15 20 24 22 15 11
27 28 30 30 19 22 21 4 8 4 10 2 3 3 3 9 2 2 4 4 2 0 1 1 6 2 6 3 4 5 4 3 4 4 5 9 7 7 11 16 21 22 20 19 17
28 28 29 30 13 20 24 8 3 2 4 3 2 2 3 5 2 3 12 1 3 3 2 5 1 4 6 3 5 7 2 4 4 2 5 6 7 5 9 13 15 16 19 21 22
27 27 29 28 7 15 19 10 3 0 0 4 1 2 3 3 3 4 5 4 2 3 4 3 2 4 5 4 7 4 3 4 4 5 3 9 4 3 3 7 13 15 15 18 21
26 27 29 25 4 14 5 12 4 1 4 7 3 2 2 1 2 1 1 1 3 3 2 2 1 3 4 2 2 1 5 3 6 2 2 4 2 2 3 11 13 13 14 15 14
25 27 27 19 9 4 10 11 2 1 5 4 5 3 3 2 4 2 0 2 2 4 4 5 2 3 2 2 1 6 4 5 3 3 3 3 4 4 4 6 10 11 13 13 15
23 25 28 14 7 7 14 5 1 5 2 6 2 4 5 2 2 4 1 1 1 3 2 4 0 3 3 5 4 6 3 1 3 1 2 3 4 3 4 4 5 6 10 13 15
22 24 21 14 8 15 12 2 5 6 3 6 4 5 4 4 4 1 3 5 3 5 4 5 2 1 1 5 4 8 5 3 3 2 4 3 4 1 4 6 6 7 9 10 12
21 21 16 10 12 14 4 4 6 0 2 2 3 5 2 4 3 3 2 1 4 3 2 3 7 2 2 2 2 3 4 4 2 1 4 1 2 2 7 7 6 7 5 7 10
20 16 10 7 12 12 4 4 3 1 1 5 7 2 2 2 2 4 1 1 1 4 3 5 5 3 2 1 2 4 3 4 2 2 0 3 4 3 6 6 6 6 7 8 9
15 10 6 8 11 5 4 3 2 1 0 1 1 3 3 5 5 6 3 2 2 2 2 2 5 3 1 2 2 1 2 2 2 1 3 2 4 4 7 6 6 5 5 6 7
7 4 2 9 8 4 2 3 2 1 1 0 2 4 3 3 3 3 3 2 1 1 3 2 2 7 3 2 3 1 2 1 1 3 2 2 3 6 8 9 9 7 6 6 7
3 3 5 8 3 1 1 2 0 1 1 2 1 2 3 3 4 3 3 1 1 2 2 2 2 4 8 4 2 0 2 2 2 2 2 2 4 6 8 8 8 7 7 6 6
0 3 5 4 0 1 3 2 1 1 2 1 2 4 3 2 3 3 3 1 1 1 1 1 2 4 8 2 2 1 2 3 2 2 5 2 3 4 7 8 7 8 7 6 6
1 3 3 4 1 1 2 3 1 1 2 1 3 1 2 3 5 5 2 2 3 2 3 2 2 5 6 7 2 4 4 4 5 3 3 6 5 7 9 10 7 7 7 7 6
1 2 1 3 2 2 1 2 2 2 2 3 3 4 4 4 4 5 4 2 1 2 1 3 5 5 10 12 6 11 14 11 11 11 8 2 4 10 11 10 7 6 7 6 5
3 2 1 2 1 2 3 3 4 3 5 2 4 4 4 4 6 7 3 2 6 2 4 2 4 3 6 10 14 14 14 14 16 15 13 10 3 4 7 7 7 6 6 6 5
3 2 2 2 2 2 4 5 2 3 4 1 5 2 9 6 3 6 6 4 5 4 6 5 3 2 6 5 7 8 6 3 3 3 5 11 4 7 6 8 6 6 6 5 5
Wind_Direction
27 22 14 10 5 0 353 346 340 335 336 338 336 337 344 344 323 328 29 355 347 344 5 358 17 351 311 156 63 59 54 36 11 29 314 356 11 350 330 348 329 293 253 271 293
21 15 10 4 359 354 350 347 342 337 329 330 330 335 338 346 341 330 13 360 354 352 9 345 326 333 344 83 66 80 85 323 338 53 351 342 353 305 354 321 317 321 320 314 310
16 12 7 2 357 351 348 347 343 332 322 317 319 321 333 347 2 51 14 358 354 357 356 312 304 300 353 54 27 126 156 303 26 9 360 309 311 303 351 13 346 327 298 301 296
13 9 5 1 356 350 347 345 337 326 315 312 312 304 330 37 104 22 4 360 356 21 358 351 353 18 20 20 341 59 23 35 320 360 346 359 344 28 39 335 359 359 0 336 306
13 9 4 359 355 352 351 344 339 331 336 342 339 149 96 57 26 15 7 4 8 5 335 346 24 15 8 327 340 142 61 347 331 8 31 69 26 81 15 358 355 354 357 346 341
12 7 2 359 354 352 348 346 346 358 3 8 101 126 81 79 87 357 3 1 359 1 348 33 3 299 280 266 328 299 65 273 77 340 122 80 32 40 360 355 356 354 346 337 321
10 5 2 359 356 356 349 352 6 7 20 49 119 105 77 139 49 12 348 347 9 5 357 26 354 29 349 323 312 295 16 77 346 306 40 131 42 28 348 357 3 357 342 332 327
8 4 1 359 3 356 351 0 18 38 37 79 109 74 74 155 80 8 357 340 10 3 355 338 350 261 236 279 356 348 58 98 296 21 3 101 301 10 357 348 356 354 342 332 321
6 4 1 360 1 360 351 355 31 32 58 66 55 25 16 90 34 359 344 348 316 299 326 322 359 350 6 21 25 14 313 354 271 62 98 66 51 28 349 356 1 351 337 320 313
3 1 1 359 359 3 353 358 22 26 21 24 358 38 7 333 326 329 325 332 299 304 349 26 43 39 18 48 310 287 334 324 256 86 86 88 111 39 360 353 11 350 344 356 12
360 358 359 357 359 10 11 356 13 6 40 28 293 289 326 328 311 281 334 324 233 88 7 65 64 331 278 259 236 253 228 265 251 177 103 106 95 44 15 2 18 350 353 10 31
360 359 358 355 360 14 37 63 50 297 320 291 255 252 269 331 304 352 345 9 357 318 15 25 109 262 287 5 38 357 45 322 292 262 104 130 102 94 44 23 28 351 359 11 18
1 358 356 357 8 7 46 49 1 331 244 326 330 311 263 345 313 311 27 336 285 352 7 162 229 332 9 30 33 19 88 289 261 312 243 140 120 136 88 72 44 17 11 22 19
357 357 357 1 20 349 49 356 5 160 79 327 335 300 302 275 308 328 44 138 324 328 345 135 16 36 357 46 73 155 213 222 283 324 209 116 248 94 154 45 38 23 22 22 18
351 352 354 1 338 36 328 340 358 183 59 302 317 316 309 1 315 284 238 80 343 302 73 266 335 25 335 250 217 239 263 226 220 267 6 300 80 267 16 19 22 13 27 22 25
346 345 345 349 342 339 335 341 138 41 303 336 311 352 7 263 246 320 313 64 320 325 237 262 153 156 224 291 190 279 308 306 127 129 17 238 120 341 9 10 19 12 20 25 24
337 336 337 338 326 329 333 93 36 82 341 321 327 339 350 294 315 356 344 9 32 26 342 330 294 323 302 339 3 25 40 2 1 22 226 213 60 130 103 66 67 25 19 23 23
331 334 331 338 335 334 356 43 71 34 6 359 296 303 258 354 285 308 333 314 21 37 323 343 333 342 8 132 263 305 118 137 250 292 274 174 176 169 129 112 90 65 26 37 33
332 330 326 327 336 337 52 46 213 192 286 338 324 339 313 321 310 343 344 107 38 38 48 6 297 345 333 317 100 332 43 178 171 244 111 159 84 46 122 107 91 67 46 25 34
333 319 309 323 332 340 69 236 161 116 312 262 330 7 334 318 8 25 273 298 147 76 99 320 308 288 284 307 256 214 236 78 15 342 304 265 165 183 170 149 123 87 58 43 30
329 341 345 341 330 50 128 231 70 69 23 237 310 311 322 343 325 284 284 299 16 204 28 340 131 290 351 213 225 304 336 303 171 152 195 289 253 187 165 160 141 133 111 73 52
350 313 340 347 23 27 263 348 283 333 44 332 68 245 247 301 288 279 288 339 43 78 314 226 186 278 250 314 330 300 215 142 132 280 265 198 265 142 139 132 127 122 118 100 77
257 266 359 359 66 333 304 287 301 213 259 176 283 232 25 286 318 259 316 228 57 78 230 191 274 330 327 312 356 37 268 219 133 78 223 184 258 177 130 125 131 121 108 95 87
51 344 322 43 94 134 307 301 208 219 257 273 276 57 329 273 223 277 246 241 169 153 145 38 260 194 235 282 329 282 251 239 184 175 248 228 161 196 167 148 135 117 115 102 85
76 214 190 300 320 240 315 290 228 241 225 186 306 213 220 281 317 262 276 255 247 183 157 158 231 230 259 274 274 273 268 250 230 231 219 254 184 192 174 149 142 125 108 89 75
155 153 333 284 278 245 172 237 225 264 192 218 221 296 310 248 235 265 309 267 235 197 185 202 263 269 277 274 260 268 269 254 247 243 244 248 228 99 107 110 108 104 97 82 61
166 142 115 250 247 173 216 221 256 135 282 250 185 24 294 301 308 271 260 242 225 198 211 185 198 7 274 305 317 277 260 247 296 40 267 235 164 145 113 114 120 101 87 82 64
Height
852 849 847 844 842 839 837 834 832 830 828 826 825 824 823 820 818 818 818 819 818 817 815 812 808 807 805 806 806 808 832 839 832 829 828 817 821 813 811 812 810 807 806 801 796
853 850 848 845 842 839 836 833 830 828 827 825 824 823 822 820 819 819 820 818 818 816 815 813 811 808 809 808 810 820 838 829 819 820 823 819 820 818 817 816 813 809 801 799 796
854 851 848 845 841 838 835 832 830 827 825 823 822 822 821 820 821 821 820 820 818 817 816 814 812 809 811 809 813 816 828 818 817 815 816 819 818 814 817 823 821 818 806 796 793
854 851 848 844 841 837 833 830 828 824 822 821 820 820 820 820 832 821 820 820 818 818 816 814 813 815 819 820 814 820 816 817 815 814 815 820 818 822 828 834 823 816 810 802 792
855 852 848 844 840 836 832 828 825 821 818 817 818 819 820 822 824 822 821 820 819 818 818 817 818 820 825 823 819 817 817 815 816 814 815 818 827 824 833 828 823 816 809 806 797
855 852 848 844 839 834 830 826 822 820 818 817 817 819 820 825 823 822 821 820 820 819 818 818 819 818 822 821 823 815 819 817 815 813 815 824 831 829 838 834 827 821 815 809 802
856 853 848 843 837 833 829 824 822 820 818 817 818 819 821 824 823 822 821 820 820 819 819 820 819 820 820 823 815 814 822 820 818 814 814 820 838 847 844 833 828 823 817 809 801
857 853 848 843 838 833 828 825 823 822 820 819 820 820 822 822 822 822 821 819 819 819 820 820 820 820 820 817 817 821 826 835 820 815 819 818 843 847 843 837 831 821 815 808 799
858 854 848 843 838 834 828 825 824 823 822 822 822 822 826 822 822 821 820 819 819 819 819 820 821 823 823 830 841 838 841 833 824 816 821 826 841 850 845 840 830 823 815 807 795
858 854 849 843 839 834 827 824 824 824 823 822 824 828 824 827 823 821 820 819 818 818 821 822 827 835 840 844 856 845 840 831 830 823 829 842 851 853 849 842 836 830 817 800 794
858 853 849 843 839 835 828 825 828 828 826 831 831 830 825 824 822 821 820 819 818 820 827 823 842 844 836 832 832 836 838 834 823 816 828 844 850 856 850 844 843 837 828 815 806
858 854 849 844 840 838 834 837 846 846 841 829 827 827 827 826 826 822 820 822 822 829 821 835 839 831 828 826 831 830 829 835 822 813 826 846 857 857 855 854 851 848 836 826 814
859 855 849 845 840 838 839 845 845 846 846 833 829 827 826 826 825 824 823 824 824 825 828 833 828 823 827 832 835 837 836 837 835 822 818 841 855 850 853 852 848 846 843 834 828
859 855 850 845 845 843 845 846 845 844 850 841 831 829 826 825 827 823 823 826 824 827 825 826 823 826 829 829 833 835 830 831 832 831 838 822 850 847 851 851 849 846 843 841 839
860 856 852 846 847 846 849 845 845 845 877 837 833 828 826 830 827 824 822 824 829 828 831 831 826 828 830 827 828 831 822 827 828 834 830 826 844 848 848 855 857 856 850 845 841
860 857 852 850 847 846 844 843 845 856 882 845 833 834 834 826 826 823 823 822 823 828 826 826 824 826 826 823 823 821 821 822 828 837 854 822 841 861 863 862 864 862 857 852 845
860 857 853 851 849 846 843 843 857 873 842 848 847 839 841 837 831 828 830 835 841 848 842 832 828 825 825 829 824 828 835 850 847 855 846 830 846 862 862 864 865 864 861 857 852
858 856 853 851 849 845 842 846 862 847 850 842 841 842 843 838 834 831 834 844 838 840 853 855 851 830 827 831 834 834 837 855 842 847 844 826 846 856 859 862 864 864 863 861 858
857 854 851 850 848 846 847 867 860 852 849 852 846 843 842 839 843 838 836 844 843 842 849 855 846 832 829 828 830 831 839 834 842 840 846 850 859 859 861 864 864 865 865 863 861
858 854 851 850 848 846 854 856 850 848 848 850 855 845 851 846 846 850 842 840 842 839 840 844 856 831 829 830 828 829 829 838 849 835 833 836 855 855 863 864 864 867 867 866 864
858 856 851 850 848 851 860 856 849 849 849 852 851 851 850 852 847 846 840 841 838 841 841 842 850 846 831 831 831 833 834 833 834 844 837 843 838 845 852 855 861 865 867 867 867
860 861 851 850 857 858 858 850 853 850 851 852 853 853 852 850 850 847 842 841 839 840 844 844 852 858 842 833 829 828 828 832 848 836 845 844 841 841 850 855 860 865 867 869 869
861 861 853 851 860 859 854 852 851 852 853 853 853 852 851 852 857 847 842 841 840 841 844 843 852 865 841 835 831 832 829 829 836 846 846 839 835 850 855 858 862 867 870 871 872
862 864 857 856 860 858 856 853 851 852 852 850 851 850 853 853 852 850 843 841 841 842 844 845 852 847 854 840 840 837 830 830 833 852 841 837 846 852 853 858 863 867 870 873 874
862 862 863 863 858 857 856 856 852 854 853 850 853 853 856 858 852 851 846 844 845 846 846 849 857 850 843 837 841 839 831 830 836 827 832 819 825 836 844 856 863 865 867 870 872
861 861 864 862 858 858 857 857 855 850 850 850 854 852 854 858 850 853 847 846 846 850 851 851 855 843 849 833 830 834 823 822 818 817 819 818 827 848 855 858 864 867 868 871 872
859 859 859 859 858 859 857 854 851 850 847 846 849 853 854 852 852 850 848 844 845 846 852 852 855 855 845 832 831 828 814 820 818 818 816 817 831 849 857 859 865 868 870 872 873